Satellite: NOAA-17
Catalog number: 27453
Epoch time:      11300.52689686
Element set:     463
Inclination:      098.3659 deg
RA of node:       334.0694 deg
Eccentricity:    0.0012560
Arg of perigee:   119.5027 deg
Mean anomaly:     240.7412 deg
Mean motion:   14.24334344 rev/day
Decay rate:       3.46e-06 rev/day^2
Epoch rev:           48549
Checksum:              310

Satellite: NOAA-18
Catalog number: 28654
Epoch time:      11300.86877484
Element set:     941
Inclination:      099.0126 deg
RA of node:       252.4429 deg
Eccentricity:    0.0015118
Arg of perigee:   090.7318 deg
Mean anomaly:     269.5612 deg
Mean motion:   14.11536019 rev/day
Decay rate:       3.26e-06 rev/day^2
Epoch rev:           33164
Checksum:              304

Satellite: NOAA-19
Catalog number: 33591
Epoch time:      11300.75356753
Element set:     132
Inclination:      098.8381 deg
RA of node:       238.7442 deg
Eccentricity:    0.0013820
Arg of perigee:   324.5377 deg
Mean anomaly:     035.4889 deg
Mean motion:   14.11227675 rev/day
Decay rate:       4.98e-06 rev/day^2
Epoch rev:           14008
Checksum:              312

/EX
SB KEPS @ AMSAT  $ORB11300.M
Orbital Elements  11300.MISC

HR AMSAT ORBITAL ELEMENTS FOR MANNED AND MISCELLANEOUS SATELLITES
FROM WA5QGD FORT WORTH,TX October 27, 2011
Send Subscribe/unsubscribe to KEPS at http://www.amsat.org/mailman/listinfo/kep
BID: ORB11300.M
TO ALL RADIO AMATEURS BT

Satellite: HUBBLE
Catalog number: 20580
Epoch time:      11296.20596250
Element set:    0857
Inclination:      028.4706 deg
RA of node:       260.0600 deg
Eccentricity:    0.0003211
Arg of perigee:   045.9963 deg
Mean anomaly:     314.0958 deg
Mean motion:   15.01667302 rev/day
Decay rate:      3.035e-05 rev/day^2
Epoch rev:           97891
Checksum:              281

Satellite: ISS
Catalog number: 25544
Epoch time:      11300.76416444
Element set:     324
Inclination:      051.6399 deg
RA of node:       213.3840 deg
Eccentricity:    0.0021869
Arg of perigee:   353.4471 deg
Mean anomaly:     006.6750 deg
Mean motion:   15.59215888 rev/day
Decay rate:     4.5603e-04 rev/day^2
Epoch rev:           14567
Checksum:              301

Satellite: CO-58
Catalog number: 28895
Epoch time:      11300.18444894
Element set:       8
Inclination:      097.9449 deg
RA of node:       171.3263 deg
Eccentricity:    0.0018051
Arg of perigee:   163.5275 deg
Mean anomaly:     196.6523 deg
Mean motion:   14.60248301 rev/day
Decay rate:      1.457e-05 rev/day^2
Epoch rev:           31950
Checksum:              314

Satellite: FALCON
Catalog number: 30776
Epoch time:      11299.33733500
Element set:     201
Inclination:      035.4297 deg
RA of node:       269.2199 deg
Eccentricity:    0.0001322
Arg of perigee:   152.0089 deg
Mean anomaly:     208.0698 deg
Mean motion:   15.05379878 rev/day
Decay rate:      8.032e-05 rev/day^2
Epoch rev:           25481
Checksum:              300

Satellite: MAST
Catalog number: 31126
Epoch time:      11300.11393460
Element set:     293
Inclination:      097.8875 deg
RA of node:       319.8364 deg
Eccentricity:    0.0094983
Arg of perigee:   119.5430 deg
Mean anomaly:     241.5283 deg
Mean motion:   14.53855200 rev/day
Decay rate:      1.225e-05 rev/day^2
Epoch rev:           24025
Checksum:              282

Satellite: CAPE1
Catalog number: 31130
Epoch time:      11299.60201993
Element set:     305
Inclination:      097.8926 deg
RA of node:       315.9397 deg
Eccentricity:    0.0102854
Arg of perigee:   132.7372 deg
Mean anomaly:     228.2534 deg
Mean motion:   14.52531080 rev/day
Decay rate:      1.605e-05 rev/day^2
Epoch rev:           23971
Checksum:              289

Satellite: COMPASS
Catalog number: 32787
Epoch time:      11300.69617527
Element set:     128
Inclination:      097.8350 deg
RA of node:       001.9606 deg
Eccentricity:    0.0016550
Arg of perigee:   103.5664 deg
Mean anomaly:     256.7313 deg
Mean motion:   14.82852645 rev/day
Decay rate:      5.291e-05 rev/day^2
Epoch rev:           18919
Checksum:              307

Satellite: AAUSAT2
Catalog number: 32788
Epoch time:      11300.37241092
Element set:     119
Inclination:      097.8371 deg
RA of node:       001.9130 deg
Eccentricity:    0.0016493
Arg of perigee:   105.4767 deg
Mean anomaly:     254.8258 deg
Mean motion:   14.83067650 rev/day
Decay rate:      5.430e-05 rev/day^2
Epoch rev:           18916
Checksum:              295

Satellite: DO-64
Catalog number: 32789
Epoch time:      11300.26484070
Element set:     133
Inclination:      097.8433 deg
RA of node:       003.0857 deg
Eccentricity:    0.0016042
Arg of perigee:   103.1239 deg
Mean anomaly:     257.1849 deg
Mean motion:   14.83791745 rev/day
Decay rate:      8.687e-05 rev/day^2
Epoch rev:           18916
Checksum:              319

Satellite: CO-66
Catalog number: 32791
Epoch time:      11300.20268867
Element set:     122
Inclination:      097.8356 deg
RA of node:       001.3691 deg
Eccentricity:    0.0017024
Arg of perigee:   103.8279 deg
Mean anomaly:     256.4915 deg
Mean motion:   14.82466124 rev/day
Decay rate:      4.252e-05 rev/day^2
Epoch rev:           18906
Checksum:              301

